DELTON-WX Weather Reports


time (UTC)temp
C
wind
direction
speed
KPH
gust
KPH
rain 1hr
cm
rain 24hr
cm
rain mn
cm
humidity
%
barometer
mb
20260509021546 10 209 6.4 0.0 0.00 0.00 0.00 39 975.0
20260509020115 10 220 4.8 0.0 0.00 0.00 0.00 39 975.0
20260509014545 10 254 4.8 0.0 0.00 0.00 0.00 42 974.5
20260509013100 11 283 4.8 0.0 0.00 0.00 0.00 42 974.5
20260509011545 11 301 6.4 0.0 0.00 0.00 0.00 42 974.5
20260509010112 11 306 6.4 0.0 0.00 0.00 0.00 42 974.5
20260509004544 11 300 6.4 0.0 0.00 0.00 0.00 35 974.2
20260509003103 12 278 6.4 0.0 0.00 0.00 0.00 35 975.5
20260509001544 13 291 6.4 0.0 0.00 0.00 0.00 35 975.5
20260509000123 13 291 8.0 0.0 0.00 0.00 0.00 35 975.5
20260508234545 14 287 11.3 0.0 0.00 0.00 0.00 25 974.8
20260508233105 15 283 12.9 0.0 0.00 0.00 0.00 21 975.4
20260508231547 15 268 12.9 0.0 0.00 0.00 0.00 21 975.3
20260508230111 15 267 14.5 0.0 0.00 0.00 0.00 21 975.3
20260508224546 15 270 16.1 0.0 0.00 0.00 0.00 24 975.3
20260508223105 15 275 16.1 0.0 0.00 0.00 0.00 21 976.3
20260508221548 16 274 16.1 0.0 0.00 0.00 0.00 21 976.3
20260508220112 16 271 16.1 0.0 0.00 0.00 0.00 21 976.3
20260508214547 16 271 16.1 0.0 0.00 0.00 0.00 23 976.6
20260508213104 16 270 17.7 0.0 0.00 0.00 0.00 29 976.2
20260508211547 16 259 17.7 0.0 0.00 0.00 0.00 29 976.1
20260508210116 16 260 17.7 0.0 0.00 0.00 0.00 29 976.1
20260508204547 16 263 19.3 0.0 0.00 0.00 0.00 34 976.5
20260508203105 16 264 19.3 0.0 0.00 0.00 0.00 29 976.2
20260508201547 16 249 17.7 0.0 0.00 0.00 0.00 29 976.2
20260508200113 16 247 17.7 0.0 0.00 0.00 0.00 29 976.2
20260508194547 16 249 16.1 0.0 0.00 0.00 0.00 25 976.4
20260508193102 16 251 16.1 0.0 0.00 0.00 0.00 25 976.4
20260508191546 16 251 16.1 0.0 0.00 0.00 0.00 25 976.4
20260508190110 16 251 16.1 0.0 0.00 0.00 0.00 25 976.4
20260508184547 16 249 17.7 0.0 0.00 0.00 0.00 33 977.1
20260508183106 16 247 16.1 0.0 0.00 0.00 0.00 34 976.6
20260508181547 16 247 16.1 0.0 0.00 0.00 0.00 34 976.7
20260508180117 16 249 17.7 0.0 0.00 0.00 0.00 34 976.7
20260508174547 15 250 17.7 0.0 0.00 0.00 0.00 32 977.7
20260508173106 15 252 17.7 0.0 0.00 0.00 0.00 32 977.8
20260508171547 15 252 17.7 0.0 0.00 0.00 0.00 32 977.8
20260508170112 15 252 17.7 0.0 0.00 0.00 0.00 32 977.8
20260508164546 15 250 16.1 0.0 0.00 0.00 0.00 36 977.6
20260508163105 15 241 14.5 0.0 0.00 0.00 0.00 36 978.1
20260508161547 13 238 11.3 0.0 0.00 0.00 0.00 36 978.0
20260508160117 13 235 11.3 0.0 0.00 0.00 0.00 36 978.0
20260508154547 13 223 8.0 0.0 0.00 0.00 0.00 47 978.8
20260508153107 12 219 8.0 0.0 0.00 0.00 0.00 52 978.0
20260508151547 12 211 8.0 0.0 0.00 0.00 0.00 52 978.0
20260508150117 11 211 8.0 0.0 0.00 0.00 0.00 52 978.0
20260508144547 11 208 6.4 0.0 0.00 0.00 0.00 64 978.1
20260508143105 11 199 6.4 0.0 0.00 0.00 0.00 56 978.2
20260508141548 10 195 6.4 0.0 0.00 0.00 0.00 56 978.2
20260508140125 10 186 6.4 0.0 0.00 0.00 0.00 60 978.0
20260508134547 10 180 4.8 0.0 0.00 0.00 0.00 71 977.9
20260508133102 8 180 8.0 0.0 0.00 0.00 0.00 71 977.9
20260508131547 7 185 8.0 0.0 0.00 0.00 0.00 71 977.9
20260508130120 7 180 6.4 0.0 0.00 0.00 0.00 71 977.9
20260508124548 6 183 6.4 0.0 0.00 0.00 0.00 89 976.9
20260508123106 6 184 9.7 0.0 0.00 0.00 0.00 88 977.7
20260508121547 5 180 8.0 0.0 0.00 0.00 0.00 88 977.7
20260508120130 4 172 4.8 0.0 0.00 0.00 0.00 88 977.7
20260508114547 3 171 3.2 0.0 0.00 0.00 0.00 90 977.0
20260508113108 2 172 4.8 0.0 0.00 0.00 0.00 89 977.7
20260508111546 2 164 4.8 0.0 0.00 0.00 0.00 89 977.8
20260508110113 2 167 6.4 0.0 0.00 0.00 0.00 89 977.8
20260508104549 2 173 8.0 0.0 0.00 0.00 0.00 82 976.8
20260508103107 2 161 8.0 0.0 0.00 0.00 0.00 82 977.9
20260508101550 2 170 6.4 0.0 0.00 0.00 0.00 82 977.9
20260508100114 2 164 4.8 0.0 0.00 0.00 0.00 82 977.9
20260508094548 2 155 4.8 0.0 0.00 0.00 0.00 82 977.1
20260508093102 3 143 3.2 0.0 0.00 0.00 0.00 77 977.8
20260508091549 3 180 3.2 0.0 0.00 0.00 0.00 77 977.8
20260508090117 3 180 3.2 0.0 0.00 0.00 0.00 77 977.8
20260508084549 3 187 1.6 0.0 0.00 0.00 0.00 77 977.3
20260508083107 3 183 4.8 0.0 0.00 0.00 0.00 82 977.3
20260508081548 3 207 6.4 0.0 0.00 0.00 0.00 82 977.3
20260508080119 3 210 6.4 0.0 0.00 0.00 0.00 82 977.3
20260508074549 3 221 6.4 0.0 0.00 0.00 0.00 87 978.1
20260508073108 3 233 6.4 0.0 0.00 0.00 0.00 87 978.1
20260508071548 3 209 6.4 0.0 0.00 0.00 0.00 87 978.1
20260508070119 4 207 6.4 0.0 0.00 0.00 0.00 87 978.1
20260508064548 4 207 4.8 0.0 0.00 0.00 0.00 84 977.7
20260508063104 4 207 3.2 0.0 0.00 0.00 0.00 81 978.1
20260508061548 4 192 4.8 0.0 0.00 0.00 0.00 81 978.1
20260508060133 5 176 4.8 0.0 0.00 0.00 0.00 81 978.1
20260508054547 5 174 6.4 0.0 0.00 0.00 0.00 78 978.8
20260508053107 5 177 6.4 0.0 0.00 0.00 0.00 83 978.7
20260508051546 5 183 6.4 0.0 0.00 0.00 0.00 83 978.7
20260508050120 5 183 6.4 0.0 0.00 0.00 0.00 83 978.7
20260508044546 5 185 6.4 0.0 0.00 0.00 0.00 78 978.8
20260508043103 5 200 6.4 0.0 0.00 0.00 0.00 78 978.2
20260508041547 5 190 8.0 0.0 0.00 0.00 0.00 78 978.2
20260508040129 5 188 6.4 0.0 0.00 0.00 0.00 78 978.2
20260508034545 5 184 4.8 0.0 0.00 0.00 0.00 75 978.1
20260508033102 6 155 4.8 0.0 0.00 0.00 0.00 79 978.8
20260508031546 6 196 4.8 0.0 0.00 0.00 0.00 79 978.8
20260508030116 6 205 6.4 0.0 0.00 0.00 0.00 79 978.8
20260508024545 6 198 6.4 0.0 0.00 0.00 0.00 76 978.2
20260508023105 6 207 9.7 0.0 0.00 0.00 0.00 76 978.7